Regional Weather Roundup
Issued by NWS

Home | Current Version | Previous Version | Graphics & Text | Print | Product List | Glossary On
Versions: 1 2 3 4 5 6 7 8 9 10 11 12 13 14 15 16 17 18 19 20 21 22 23 24 25 26 27 28 29 30 31 32 33 34 35 36 37 38 39 40 41 42 43 44 45 46 47 48 49 50
000
ASUS43 KIND 270409
RWRIN

WEATHER ROUNDUP FOR INDIANA
NATIONAL WEATHER SERVICE INDIANAPOLIS IN
1100 PM EST THU FEB 26 2015

NOTE: "FAIR" INDICATES FEW OR NO CLOUDS BELOW 12,000 FEET WITH NO
SIGNIFICANT WEATHER AND/OR OBSTRUCTIONS TO VISIBILITY.

* - STATION DOES NOT REPORT WEATHER SUCH AS PRECIPITATION OR FOG.

+ - STATION NOT QUALITY CONTROLLED BY THE NATIONAL WEATHER SERVICE.
    USE DATA WITH CAUTION...ESPECIALLY DEWPOINT AND RELATIVE
    HUMIDITY OBSERVATIONS.

INZ001>003-010>013-019-020-270500-
NORTHWEST INDIANA

CITY           SKY/WX    TMP DP  RH WIND       PRES   REMARKS
GARY /AIRPORT/ CLEAR      8  -6  53 W8        30.42R WCI  -5
KNOX *+          N/A     10   0  61 W5        30.38S WCI   2
LA PORTE +     PTCLDY     6   2  86 CALM      30.38R
MICHIGAN CITY+ CLOUDY    10   5  79 CALM      30.39R
MONTICELLO +   LGT SNOW   6   3  88 CALM      30.39R
RENSSELAER +   PTCLDY     5   3  92 W7        30.41R WCI  -7
VALPARAISO     CLOUDY    10   0  63 NW8       30.38S WCI  -2

$$

LMZ046-743>745-270500-
SOUTHERN LAKE MICHIGAN

STATION/POSITION TIME  TEMP WIND        PRES
                       AIR  DIR/SP/G
                 (UTC) (F)  (DEG/KT/KT) (MB)
MICHIGAN CITY    0400   11  320/  3/  4   N/A

$$

INZ004-005-014>016-021>024-270500-
NORTH CENTRAL INDIANA

CITY           SKY/WX    TMP DP  RH WIND       PRES   REMARKS
GOSHEN         CLEAR      2  -7  66 W3        30.35R
LOGANSPORT +   CLOUDY     9   1  72 NW3       30.39R
PERU/GRISSOM   PTCLDY     7   0  71 W7        30.36R WCI  -4
ROCHESTER +    CLEAR     10   3  72 NW5       30.38R WCI   2
SOUTH BEND     MOCLDY     3  -4  72 W3        30.37R
WARSAW +       CLEAR      3  -4  72 W3        30.36R

$$

INZ006>009-017-018-025>027-270500-
NORTHEAST INDIANA

CITY           SKY/WX    TMP DP  RH WIND       PRES   REMARKS
ANGOLA *+      CLEAR      0  -4  85 CALM      30.32R
AUBURN +       CLEAR      9  -2  61 NW3       30.35R
FORT WAYNE     PTCLDY     8  -3  61 NW8       30.35R WCI  -4
HUNTINGTON +   CLEAR      7  -8  50 N6        30.35R WCI  -3

$$

INZ028-029-035-036-043>045-051>053-270500-
WEST CENTRAL INDIANA

CITY           SKY/WX    TMP DP  RH WIND       PRES   REMARKS
CRAWFORDSVL +  CLOUDY     6  -3  65 NW5       30.39R WCI  -2
GREENCASTLE +  CLEAR     10   0  61 CALM      30.39R
LAFAYETTE      CLOUDY    10   6  84 W3        30.40R
TERRE HAUTE    MOCLDY    10   4  76 NW5       30.42R WCI   2

$$

INZ030>032-037>040-046>048-054>057-064-065-270500-
CENTRAL INDIANA

CITY           SKY/WX    TMP DP  RH WIND       PRES   REMARKS
CP ATTERBURY + CLOUDY    16  12  86 NW6       30.38R WCI   7
FRANKFORT +    PTCLDY     0  -3  86 W3        30.39R
INDIANAPOLIS   PTCLDY     9   1  70 NW9       30.37R WCI  -4
-EAGLE CREEK   CLEAR      9   2  73 NW6       30.37R WCI  -1
KOKOMO *+      CLEAR      9   0  66 NW8       30.37R WCI  -4
MARION +       CLEAR      5  -4  67 NW6       30.36R WCI  -6
MT COMFORT *+  CLEAR     10  -4  52 NW8       30.36R WCI  -1
SHELBYVILLE    CLOUDY    13   5  70 NW9       30.36R WCI   1
ZIONSVILLE +   CLEAR      5  -1  78 NW6       30.37R WCI  -6

$$

INZ033-034-041-042-049-050-058-059-270500-
EAST CENTRAL INDIANA

CITY           SKY/WX    TMP DP  RH WIND       PRES   REMARKS
MUNCIE         CLEAR      7   1  76 NW7       30.33S WCI  -5

$$

INZ060-061-067>069-081>083-085>088-270500-
SOUTHWEST INDIANA

CITY           SKY/WX    TMP DP  RH WIND       PRES   REMARKS
EVANSVILLE     CLEAR     20   9  62 N8        30.43R WCI  10
HUNTINGBURG *+ CLEAR     19  12  73 NW8       30.40R WCI   9
WASHINGTON +   CLEAR     11   4  71 N9        30.41R WCI  -1

$$

INZ062-063-066-070>080-084-089>092-270500-
SOUTH CENTRAL AND SOUTHEAST INDIANA

CITY           SKY/WX    TMP DP  RH WIND       PRES   REMARKS
BLOOMINGTON    CLOUDY    15   5  64 N13       30.37R WCI   1
NORTH VERNON + CLEAR      9   5  85 CALM      30.36R
SEYMOUR +      PTCLDY     7   0  72 NW3       30.38R

$$



USA.gov is the U.S. government's official web portal to all federal, state and local government web resources and services.